Home > Time Zones > World Clock > Weather > Peru > Ica > Past weeks

Flag for Peru Weather past 2 weeks in Ica, Ica, Peru

Now
54 °F

Clear.


Feels Like: 53 °F
Forecast: 60 / 87 °F
Wind: 3 mph from East

Location: Pisco Airport

Current Time: Aug 3, 2015 at 1:57:43 AM

Latest Report: Aug 3, 2015 at 1:00 AM


Visibility: 5 mi

Pressure: 29.86 "Hg

Humidity: 94%

Dew point: 52 °F

Location of IcaLocation

Historic Weather in Ica — Graph

°F

Ica temperature yesterday

Maximum temperature yesterday: 68 °F (at 2:00 PM)
Minimum temperature yesterday: 55 °F (at 2:00 AM)
Average temperature yesterday: 62 °F

Past Weeks' High & Low Weather Summary

 TemperatureHumidityPressure
High75 °F (Jul 21, 3:00 PM)94% (Jul 19, 5:00 AM)30.07 "Hg (Jul 19, 5:00 AM)
Low54 °F (Jul 30, 3:00 AM)57% (Jul 21, 1:00 PM)29.80 "Hg (Jul 25, 3:00 PM)
Average64 °F79%29.94 "Hg
* Reported Midnight between Jul 18 and Jul 19 — Midnight between Aug 2 and Aug 3, Ica, Weather by CustomWeather, © 2015

Note: Actual official high and low records may vary slightly from our data, if they occured in-between our weather recording intervals... More about our weather records

Advertising

Ica weather history for previous 24 hours

 ConditionsComfort  
Time TempWeatherWind HumidityBarometerVisibility
12:00 AM
Mon, Aug 3
55 °FClear.5 mph88%29.86 "Hg5 mi
11:00 PM
Sun, Aug 2
57 °FClear.3 mph88%29.86 "Hg5 mi
10:00 PM61 °FClear.8 mph88%29.86 "Hg10 mi
9:00 PM63 °FClear.12 mph83%29.86 "Hg10 mi
8:00 PM63 °FClear.10 mph83%29.86 "Hg10 mi
7:00 PM63 °FClear.12 mph83%29.86 "Hg10 mi
6:00 PM64 °FClear.14 mph78%29.86 "Hg10 mi
5:00 PM66 °FSunny.12 mph68%29.86 "Hg10 mi
4:00 PM66 °FPassing clouds.13 mph68%29.86 "HgN/A
3:00 PM68 °FPassing clouds.9 mph73%29.86 "HgN/A
2:00 PM68 °FPartly sunny.10 mph69%29.89 "HgN/A
1:00 PM66 °FOvercast.9 mph73%29.92 "Hg4 mi
12:00 PM64 °FOvercast.10 mph83%29.92 "Hg4 mi
11:00 AM64 °FFog.8 mph78%29.95 "Hg3 mi
10:00 AM64 °FFog.6 mph78%29.95 "Hg3 mi
9:00 AM64 °FFog.3 mph78%29.95 "Hg3 mi
8:00 AM63 °FOvercast.3 mph83%29.92 "Hg4 mi
7:00 AM63 °FOvercast.5 mph83%29.92 "Hg2 mi
6:00 AM63 °FOvercast.5 mph77%29.89 "Hg4 mi
5:00 AM61 °FOvercast.3 mph83%29.89 "Hg5 mi
4:00 AM59 °FOvercast.2 mph88%29.86 "Hg5 mi
3:00 AM57 °FOvercast.5 mph88%29.89 "HgN/A
2:00 AM55 °FPassing clouds.5 mph88%29.89 "HgN/A
1:00 AM57 °FClear.3 mph88%29.92 "Hg10 mi
Weather by CustomWeather, © 2015

See weather overviewHow to use our weather pages